• En Colombia
  • Lista de países
  • Para 7 días
  • Temperatura del agua
  • El tiempo en el mapa
  • Informadores
  • user-avatar
    Iniciar sesión

    Tiempo cada hora Lezhe

    Hoy, 23 Febrero, Domingo

    Tiempo Temperatura Precipitaciones Viento Presión Humedad
    00:00 +4°C° 0 mm 2 mps 747 mmHg 64%
    01:00 +4°C° 0 mm 2 mps 747 mmHg 64%
    02:00 +4°C° 0 mm 2 mps 746 mmHg 63%
    03:00 +4°C° 0 mm 2 mps 746 mmHg 62%
    04:00 +4°C° 0 mm 1 mps 745 mmHg 60%
    05:00 +5°C° 0 mm 1 mps 745 mmHg 59%
    06:00 +5°C° 0 mm 1 mps 745 mmHg 57%
    07:00 +5°C° 0 mm 1 mps 745 mmHg 55%
    08:00 +7°C° 0 mm 1 mps 745 mmHg 50%
    09:00 +9°C° 0 mm 1 mps 745 mmHg 45%
    10:00 +10°C° 0 mm 0 mps 744 mmHg 40%
    11:00 +12°C° 0 mm 1 mps 744 mmHg 40%
    12:00 +13°C° 0 mm 1 mps 744 mmHg 41%
    13:00 +14°C° 0 mm 1 mps 743 mmHg 41%
    14:00 +13°C° 0 mm 1 mps 743 mmHg 46%
    15:00 +12°C° 0 mm 1 mps 742 mmHg 51%
    16:00 +12°C° 0 mm 1 mps 742 mmHg 56%
    17:00 +11°C° 0 mm 1 mps 742 mmHg 59%
    18:00 +9°C° 0 mm 1 mps 742 mmHg 63%
    19:00 +7°C° 0 mm 0 mps 742 mmHg 66%
    20:00 +8°C° 0 mm 1 mps 742 mmHg 66%
    21:00 +8°C° 0 mm 1 mps 742 mmHg 67%
    22:00 +7°C° 0 mm 1 mps 742 mmHg 67%
    23:00 +7°C° 0 mm 1 mps 742 mmHg 66%

    Mañana, 24 Febrero, Lunes

    Tiempo Temperatura Precipitaciones Viento Presión Humedad
    00:00 +7°C° 0 mm 1 mps 741 mmHg 66%
    01:00 +7°C° 0 mm 1 mps 741 mmHg 65%
    02:00 +7°C° 0 mm 1 mps 740 mmHg 65%
    03:00 +7°C° 0 mm 1 mps 740 mmHg 65%
    04:00 +6°C° 0 mm 1 mps 739 mmHg 66%
    05:00 +6°C° 0 mm 1 mps 739 mmHg 66%
    06:00 +7°C° 0 mm 1 mps 739 mmHg 66%
    07:00 +7°C° 0 mm 1 mps 740 mmHg 67%
    08:00 +9°C° 0 mm 1 mps 740 mmHg 64%
    09:00 +10°C° 0 mm 1 mps 740 mmHg 60%
    10:00 +12°C° 0 mm 1 mps 740 mmHg 57%
    11:00 +13°C° 0 mm 1 mps 740 mmHg 55%
    12:00 +14°C° 0 mm 1 mps 740 mmHg 54%
    13:00 +15°C° 0 mm 1 mps 740 mmHg 52%
    14:00 +15°C° 0 mm 2 mps 740 mmHg 54%
    15:00 +15°C° 0 mm 2 mps 740 mmHg 56%
    16:00 +15°C° 0 mm 2 mps 740 mmHg 59%
    17:00 +13°C° 0 mm 2 mps 740 mmHg 64%
    18:00 +12°C° 0 mm 2 mps 740 mmHg 69%
    19:00 +10°C° 0 mm 2 mps 741 mmHg 73%
    20:00 +9°C° 0 mm 2 mps 741 mmHg 73%
    21:00 +9°C° 0 mm 2 mps 741 mmHg 72%
    22:00 +9°C° 0 mm 3 mps 741 mmHg 71%
    23:00 +9°C° 0 mm 3 mps 740 mmHg 69%

    Pasado mañana, 25 Febrero, Martes

    Tiempo Temperatura Precipitaciones Viento Presión Humedad
    00:00 +9°C° 0 mm 2 mps 740 mmHg 68%
    01:00 +9°C° 0 mm 2 mps 740 mmHg 66%
    02:00 +8°C° 0 mm 2 mps 739 mmHg 65%
    03:00 +8°C° 0 mm 2 mps 739 mmHg 64%
    04:00 +9°C° 0 mm 1 mps 738 mmHg 63%
    05:00 +9°C° 0 mm 1 mps 738 mmHg 62%
    06:00 +8°C° 0 mm 2 mps 738 mmHg 62%
    07:00 +9°C° 0 mm 2 mps 738 mmHg 61%
    08:00 +12°C° 0 mm 2 mps 737 mmHg 57%
    09:00 +14°C° 0 mm 2 mps 737 mmHg 53%
    10:00 +16°C° 0 mm 2 mps 737 mmHg 49%
    11:00 +16°C° 0 mm 2 mps 737 mmHg 54%
    12:00 +16°C° 0 mm 3 mps 736 mmHg 59%
    13:00 +16°C° 0 mm 3 mps 736 mmHg 64%
    14:00 +14°C° 0 mm 3 mps 735 mmHg 68%
    15:00 +14°C° 0 mm 3 mps 735 mmHg 72%
    16:00 +13°C° 0 mm 3 mps 734 mmHg 76%
    17:00 +12°C° 0.1 mm 3 mps 734 mmHg 81%
    18:00 +12°C° 0.1 mm 3 mps 734 mmHg 86%
    19:00 +11°C° 0.1 mm 3 mps 734 mmHg 91%
    20:00 +11°C° 0.1 mm 3 mps 734 mmHg 91%
    21:00 +10°C° 0.1 mm 3 mps 734 mmHg 92%
    22:00 +10°C° 0.1 mm 3 mps 734 mmHg 92%
    23:00 +10°C° 0.1 mm 3 mps 733 mmHg 92%

    26 Febrero, Miércoles

    Tiempo Temperatura Precipitaciones Viento Presión Humedad
    00:00 +10°C° 0.1 mm 3 mps 733 mmHg 92%
    01:00 +9°C° 0.1 mm 3 mps 733 mmHg 91%
    02:00 +9°C° 0.1 mm 3 mps 732 mmHg 90%
    03:00 +9°C° 0.1 mm 3 mps 731 mmHg 89%
    04:00 +9°C° 0.1 mm 3 mps 731 mmHg 88%
    05:00 +9°C° 0.1 mm 3 mps 731 mmHg 87%
    06:00 +9°C° 0.1 mm 3 mps 730 mmHg 86%
    07:00 +8°C° 0.1 mm 4 mps 730 mmHg 85%
    08:00 +10°C° 0.1 mm 4 mps 730 mmHg 81%
    09:00 +10°C° 0.1 mm 5 mps 730 mmHg 77%
    10:00 +11°C° 0.1 mm 6 mps 729 mmHg 74%
    11:00 +12°C° 0.5 mm 7 mps 729 mmHg 75%
    12:00 +12°C° 0.5 mm 8 mps 728 mmHg 76%
    13:00 +12°C° 0.5 mm 9 mps 728 mmHg 77%
    14:00 +12°C° 0.9 mm 8 mps 727 mmHg 77%
    15:00 +11°C° 0.9 mm 8 mps 727 mmHg 78%
    16:00 +11°C° 0.9 mm 8 mps 726 mmHg 78%
    17:00 +10°C° 1.1 mm 7 mps 726 mmHg 80%
    18:00 +10°C° 1.1 mm 7 mps 726 mmHg 83%
    19:00 +9°C° 1.1 mm 7 mps 726 mmHg 85%
    20:00 +9°C° 0.9 mm 6 mps 726 mmHg 84%
    21:00 +9°C° 0.9 mm 6 mps 726 mmHg 84%
    22:00 +9°C° 0.9 mm 6 mps 726 mmHg 83%
    23:00 +8°C° 0.6 mm 6 mps 726 mmHg 82%

    27 Febrero, Jueves

    Tiempo Temperatura Precipitaciones Viento Presión Humedad
    00:00 +8°C° 0.6 mm 7 mps 726 mmHg 81%
    01:00 +6°C° 0.6 mm 7 mps 726 mmHg 80%
    02:00 +6°C° 1 mm 7 mps 726 mmHg 80%
    03:00 +6°C° 1 mm 8 mps 725 mmHg 81%
    04:00 +5°C° 1 mm 9 mps 725 mmHg 82%
    05:00 +5°C° 1.4 mm 7 mps 725 mmHg 84%
    06:00 +5°C° 1.4 mm 5 mps 725 mmHg 87%
    07:00 +4°C° 1.4 mm 4 mps 725 mmHg 89%
    08:00 +4°C° 0.9 mm 4 mps 726 mmHg 89%
    09:00 +4°C° 0.9 mm 4 mps 727 mmHg 88%
    10:00 +4°C° 0.9 mm 4 mps 728 mmHg 88%
    11:00 +5°C° 0.4 mm 4 mps 728 mmHg 86%
    12:00 +5°C° 0.4 mm 5 mps 729 mmHg 84%
    13:00 +5°C° 0.4 mm 5 mps 729 mmHg 82%
    14:00 +5°C° 0.2 mm 4 mps 730 mmHg 77%
    15:00 +5°C° 0.2 mm 3 mps 731 mmHg 72%
    16:00 +5°C° 0.2 mm 3 mps 732 mmHg 68%
    17:00 +5°C° 0 mm 2 mps 733 mmHg 70%
    18:00 +4°C° 0 mm 2 mps 734 mmHg 72%
    19:00 +3°C° 0 mm 2 mps 735 mmHg 74%
    20:00 +4°C° 0 mm 1 mps 736 mmHg 74%
    21:00 +4°C° 0 mm 1 mps 737 mmHg 73%
    22:00 +3°C° 0 mm 1 mps 737 mmHg 73%
    23:00 +3°C° 0 mm 1 mps 737 mmHg 72%

    28 Febrero, Viernes

    Tiempo Temperatura Precipitaciones Viento Presión Humedad
    00:00 +3°C° 0 mm 1 mps 737 mmHg 72%
    01:00 +2°C° 0 mm 2 mps 737 mmHg 71%
    02:00 +2°C° 0 mm 2 mps 737 mmHg 71%
    03:00 +2°C° 0 mm 2 mps 737 mmHg 70%
    04:00 +2°C° 0 mm 2 mps 737 mmHg 69%
    05:00 +3°C° 0 mm 2 mps 737 mmHg 69%
    06:00 +3°C° 0 mm 2 mps 737 mmHg 70%
    07:00 +3°C° 0 mm 2 mps 737 mmHg 70%
    08:00 +5°C° 0 mm 2 mps 738 mmHg 67%
    09:00 +6°C° 0 mm 2 mps 738 mmHg 64%
    10:00 +8°C° 0 mm 2 mps 738 mmHg 61%
    11:00 +8°C° 0 mm 3 mps 738 mmHg 64%
    12:00 +8°C° 0 mm 3 mps 738 mmHg 67%
    13:00 +8°C° 0 mm 3 mps 738 mmHg 70%
    14:00 +8°C° 0.2 mm 3 mps 738 mmHg 76%
    15:00 +7°C° 0.2 mm 3 mps 738 mmHg 82%
    16:00 +6°C° 0.2 mm 2 mps 738 mmHg 88%
    17:00 +6°C° 0.1 mm 2 mps 738 mmHg 89%
    18:00 +6°C° 0.1 mm 2 mps 738 mmHg 90%
    19:00 +6°C° 0.1 mm 2 mps 738 mmHg 90%
    20:00 +6°C° 0 mm 2 mps 739 mmHg 88%
    21:00 +6°C° 0 mm 2 mps 739 mmHg 87%
    22:00 +6°C° 0 mm 2 mps 739 mmHg 85%
    23:00 +7°C° 0.1 mm 2 mps 739 mmHg 85%
    Mostrar más